S-Net C (43189 NORAD) Tracking and Keplerian Element Data

This shows tracking and keplerian element data for the satellite.

Feedback or suggestion? Click here.




ElementValue
Catalog43189
NameS-Net C
Epoch Orbit38191
Epoch Day34.6679492
Epoch Year2025
RAAN299.0572
Inclination97.5768
Eccentricity0.001004
Argument of Perigee289.842
Mean Anonmoly70.1727
Mean Motion15.09574456
Decay Rate9.782E-05
L11 43189U 18014K 25034.66794920 .00009782 00000-0 61202-3 0 9996
L22 43189 97.5768 299.0572 0010040 289.8420 70.1727 15.09574456381913



Live tracking and technical data element details for S-Net C (NORAD 43189). S-Net C can be tracked NOW for your location showing map with azimuth and elevation plus other details from your city location.







IsCatalogInMostPopularTable: catalog: 43189, numindb: 745
Update: records affected: 1



GetName: 43189 S-Net C

Hit Count: updated at: Fri, 18 Jul 2025 16:15:53 GMT